Погода в Калгановке

Россия / Орловская область     52°51′59″N   36°42′17″E
темп.,
°C
ветер,
м/с
пор.,
м/с
влажн.,
%
обл.,
%
осадки,
мм/ч
давл.,
гПа
погр.,
м
14 мая, пт
пт1400:00+9юв349116 0.0 101643
03:00+9вюв369498 0.0 101695
06:00+10вюв389491 0.0 1015177
09:00+15юв5887100 0.6 1015445
12:00+20юв71071100 0.0 10131084
15:00+21юв81374100 1.1 10111353
18:00+19ююв5137579 0.0 1010835
21:00+16ююв51492100 0.8 1010395
15 мая, сб
сб1500:00+15ююв399789 3.1 1010221
03:00+13ююв229661 4.2 100930
06:00+14ю3596100 0.0 1010128
09:00+18ююз5878100 0.0 1010490
12:00+20ююз79631 0.0 10111465
15:00+20ююз810664 0.8 10111546
18:00+18ююз610750 1.3 10111032
21:00+14ююз310897 1.4 1012220
16 мая, вс
вс1600:00+12ююз399384 0.0 1013204
03:00+11ююз37920 0.0 1014119
06:00+11ююз39915 0.0 1014228
09:00+16юз58730 0.0 1014614
12:00+19юз57620 0.0 10151263
15:00+21юз47571 0.0 10141736
18:00+21зюз246543 0.0 1014429
21:00+16с117747 0.0 101411
17 мая, пн
пн1700:00+14св338154 0.0 101435
03:00+14всв388598 0.0 1014146
06:00+14всв4118650 0.0 1013266
09:00+19в7117420 0.0 1012502
12:00+24вюв695911 0.0 1010758
15:00+25юв610585 0.0 10101271
18:00+23вюв612655 0.0 1008577
21:00+19вюв616735 0.0 1008436
18 мая, вт
вт1800:00+17юв515795 0.0 1008352
03:00+15вюв4987100 0.0 1007176
06:00+15юв49895 0.0 1006194
09:00+20ююв6980100 0.0 1006508
12:00+20юз71082100 0.5 1007722
15:00+18ююз588499 0.7 1009958
18:00+19ююз5778100 0.0 1009911
21:00+15ю3793100 0.1 1011146